TITAN 3C TRANSTAGE DEB, 36983

Orbit data source: Space-Track

TITAN 3C TRANSTAGE DEB, 36983 is space debris originally from a launch on Tue, 21 Dec 1965 UTC launched from the Air Force Eastern Test Range (AFETR). Debris objects in space refer to the collection of defunct objects orbiting the Earth. Examples of debris include non-operational satellites, rocket bodies, and fragments generated from explosions, collisions, or faulty payload assembly.

Loading next visibility...
Identifier
36983, 1965-108DP
Orbit
Active
Country
Flag of USUS
Related business
Manufacturer
Unknown
Mission
Spacecraft
Bus & Motor
Unknown
Mass
Unknown
Launch date (UTC)
1965-12-21 (60 years ago)
Launch vehicle
Unknown
Launch site
Air Force Eastern Test Range (AFETR)
Object type
Payload
Rocket body
Debris
Shape & HBR
Unknown shape, 0.3 m
Radar Cross Section
Medium (>0.1 m² and <1 m²)

Expand to show TLE details & history
Last TLE update: 21 hours ago

TLE from 21 hours ago
0 TITAN 3C TRANSTAGE DEB
1 36983U 65108DP  25288.80923482  .00049696  00000-0  15357-2 0  9997
2 36983  26.9987 120.2278 4487412 100.6576 311.3850  6.61594575584678
Epoch: 2025-10-15T19:25Z
TLE epoch observation values (Epoch: 2025-10-15T19:25:17.888Z)
Latitude
-0.00001°
Longitude
164.32525°
Altitude
4,055.161 km
Speed
6.57 km/s
True Right ascension
08h 00m 54s
True Declination
0° 00' 00"
Sunlit
Object was in daylight at epoch
Visualization orbit readout
Latitude
Unknown
Longitude
Unknown
Altitude
Unknown
Speed
Unknown
Apparent Right ascension
Unknown
Apparent Declination
Unknown
Sunlit
N/A
Visualization observer readout
Local Sidereal Time
10:58:15
Azimuth
Unknown
Elevation
Unknown
Doppler factor
Unknown
Orbital elements
Apogee altitude
10,991.624 km
Perigee altitude
231.21 km
Semi-major axis
11,989.554 km
Eccentricity
0.44874
Inclination
26.9987°
RAAN
120.2278°
Arg. of periapsis
100.6576°
True anomaly
259.39192°
Mean anomaly
311.385°
Eccentric anomaly
286.76712°
Mean motion
1.65325 °/min
Orbital period
217.75 mins
BSTAR
0.0015357
Loading maneuver chart data...
Computing Atmospheric mass density...

Documentation

Showing up to 5 results
|